Location: Toronto
(43.6672°N, 79.4170°W)
Time: 10:46:25
(UTC-04:00)

ISS - All Passes

Search period start: 29 July 2014 00:00
Search period end: 08 August 2014 00:00
Orbit: 411 x 419 km, 51.6° (Epoch: 29 July)

Date Brightness Start Highest point End Pass type
(mag) Time Alt. Az. Time Alt. Az. Time Alt. Az.
29 Jul - 00:30:16 10° SW 00:33:34 64° SE 00:36:54 10° ENE visible
29 Jul - 02:07:31 10° W 02:10:30 29° NNW 02:13:30 10° NE visible
29 Jul - 03:45:20 10° NW 03:47:57 21° N 03:50:35 10° NE visible
29 Jul - 05:22:06 10° NW 05:25:18 39° NNE 05:28:30 10° E visible
29 Jul - 06:58:54 10° WNW 07:02:00 34° SW 07:05:05 10° SSE daylight
29 Jul - 23:41:43 10° SSW 23:44:50 37° SE 23:47:58 10° ENE night (unlit)
30 Jul - 01:18:24 10° W 01:21:33 37° NNW 01:24:44 10° NE visible
30 Jul - 02:56:19 10° NW 02:58:55 20° N 03:01:32 10° NE visible
30 Jul - 04:33:20 10° NW 04:36:22 30° NNE 04:39:23 10° E visible
30 Jul - 06:09:56 10° WNW 06:13:16 59° SW 06:16:34 10° SE daylight
30 Jul - 22:53:29 10° S 22:56:09 22° SE 22:58:49 10° E night (unlit)
31 Jul - 00:29:22 10° WSW 00:32:39 54° NNW 00:35:57 10° NE visible
31 Jul - 02:07:12 10° WNW 02:09:53 22° N 02:12:35 10° NE visible
31 Jul - 03:44:32 10° NW 03:47:23 25° NNE 03:50:13 10° ENE visible
31 Jul - 05:21:05 10° WNW 05:24:28 83° NNE 05:27:50 10° ESE visible
31 Jul - 06:58:58 10° W 07:00:46 14° SW 07:02:33 10° SSW daylight
31 Jul - 22:05:50 10° SSE 22:07:31 13° SE 22:09:12 10° E night (unlit)
31 Jul - 23:40:27 10° WSW 23:43:47 85° NNW 23:47:09 10° ENE night (unlit)
01 Aug - 01:18:02 10° WNW 01:20:52 25° NNW 01:23:43 10° NE visible
01 Aug - 02:55:40 10° NW 02:58:21 22° N 03:01:03 10° ENE visible
01 Aug - 04:32:17 10° NW 04:35:36 53° NNE 04:38:54 10° ESE visible
01 Aug - 06:09:24 10° W 06:12:07 23° SW 06:14:50 10° S daylight
01 Aug - 22:51:43 10° SW 22:54:59 58° SE 22:58:17 10° ENE visible
02 Aug - 00:28:52 10° W 00:31:52 30° NNW 00:34:54 10° NE visible
02 Aug - 02:06:42 10° NW 02:09:18 20° N 02:11:55 10° NE visible
02 Aug - 03:43:31 10° NW 03:46:41 37° NNE 03:49:50 10° E visible
02 Aug - 05:20:15 10° WNW 05:23:25 38° SW 05:26:33 10° SSE visible
02 Aug - 22:03:12 10° SSW 22:06:14 33° SE 22:09:17 10° ENE visible
02 Aug - 23:39:44 10° W 23:42:54 40° NNW 23:46:06 10° NE visible
03 Aug - 01:17:38 10° NW 01:20:15 21° N 01:22:52 10° NE visible
03 Aug - 02:54:43 10° NW 02:57:42 28° NNE 03:00:41 10° E visible
03 Aug - 04:31:18 10° WNW 04:34:38 66° SW 04:37:58 10° SE visible
03 Aug - 21:15:01 10° S 21:17:32 20° SE 21:20:03 10° E visible
03 Aug - 22:50:41 10° WSW 22:53:59 59° NNW 22:57:18 10° NE visible
04 Aug - 00:28:29 10° WNW 00:31:12 22° N 00:33:54 10° NE visible
04 Aug - 02:05:53 10° NW 02:08:41 24° NNE 02:11:29 10° ENE visible
04 Aug - 03:42:26 10° NW 03:45:48 76° NNE 03:49:09 10° ESE visible
04 Aug - 05:20:06 10° W 05:22:08 15° SW 05:24:11 10° S visible
04 Aug - 20:27:35 10° SSE 20:28:53 12° SE 20:30:11 10° ESE daylight
04 Aug - 22:01:47 10° SW 22:05:07 87° SSE 22:08:28 10° ENE visible
04 Aug - 23:39:18 10° WNW 23:42:09 25° NNW 23:45:01 10° NE visible
05 Aug - 01:16:59 10° NW 01:19:38 21° N 01:22:17 10° ENE visible
05 Aug - 02:53:37 10° NW 02:56:54 49° NNE 03:00:11 10° ESE night (unlit)
05 Aug - 04:30:38 10° W 04:33:28 25° SW 04:36:17 10° SSE visible
05 Aug - 21:13:04 10° SW 21:16:18 51° SE 21:19:33 10° ENE visible
05 Aug - 22:50:06 10° W 22:53:08 32° NNW 22:56:11 10° NE visible
06 Aug - 00:27:58 10° NW 00:30:33 20° N 00:33:09 10° NE visible
06 Aug - 02:04:49 10° NW 02:07:57 35° NNE 02:11:04 10° E visible
06 Aug - 03:41:31 10° WNW 03:44:43 43° SW 03:47:55 10° SSE night (unlit)
06 Aug - 20:24:35 10° SSW 20:27:32 30° SE 20:30:30 10° ENE daylight
06 Aug - 22:00:58 10° W 22:04:09 43° NNW 22:07:23 10° NE visible
06 Aug - 23:38:52 10° NW 23:41:28 21° N 23:44:06 10° NE visible
07 Aug - 01:16:00 10° NW 01:18:56 27° NNE 01:21:52 10° ENE visible
07 Aug - 02:52:33 10° WNW 02:55:55 74° SW 02:59:15 10° SE night (unlit)
07 Aug - 19:36:29 10° S 19:38:49 18° SE 19:41:10 10° E daylight
07 Aug - 21:11:55 10° WSW 21:15:13 64° NNW 21:18:33 10° NE visible
07 Aug - 22:49:40 10° WNW 22:52:24 23° N 22:55:08 10° NE visible
